Terminal Aerodrome Forecast
Issued by NWS Key West, FL

Home | Current Version | Previous Version | Text Only | Print | Product List | Glossary On
Versions: 1 2 3 4 5 6 7 8 9 10 11 12 13 14 15 16 17 18 19 20 21 22 23 24 25 26 27 28 29 30 31 32 33 34 35 36 37 38 39 40 41 42 43
693
FTUS42 KKEY 230707 AAA
TAFEYW
TAF AMD
KEYW 230707Z 2307/2406 21025G35KT P6SM SCT024 BKN040
      TEMPO 2307/2310 21035G60KT 1/2SM +TSRA OVC020CB
     FM231000 27025G37KT P6SM SCT024 OVC040
     FM240000 31020G28KT P6SM BKN040=

USA.gov is the U.S. government's official web portal to all federal, state and local government web resources and services.